DateTimeUTC,F1_A11,F1_S11,BsB_S11,BsG_S11,BsR_S11,BbsB_S11,BbsG_S11,BbsR_S11,BaB_A11,BaG_A11,BaR_A11,Tu_S11,T_S11,Uu_S11,U_S11,P_S11,T1_A11
2021-02-03T13:00:00Z,00000200,21000000,,,,,,,0000.05,-000.77,-000.30,15.5,23.0,,00.0,0633.1,30.8
2021-02-03T13:01:00Z,00000200,21000000,,,,,,,-000.05,-000.19,-000.03,15.5,23.0,,00.0,0633.0,30.8
2021-02-03T13:02:00Z,00000200,21000000,,,,,,,-000.03,0000.14,0000.49,15.4,23.0,,00.0,0633.0,30.8
2021-02-03T13:03:00Z,00000200,61000000,,,,,,,0000.43,0000.13,0000.26,15.4,23.0,,00.0,0633.0,30.8
2021-02-03T13:04:00Z,00000200,41000000,0000.32,0000.37,-000.32,-000.08,-000.06,0000.05,0000.24,0000.66,-000.15,15.8,22.8,,00.0,0633.8,30.8
2021-02-03T13:05:00Z,00000200,01000000,0000.28,0000.13,-000.07,0000.03,0000.00,0000.10,0000.25,0000.41,0000.20,15.8,22.7,,00.0,0633.9,30.9
2021-02-03T13:06:00Z,00000200,01000000,-000.03,0000.05,-000.09,-000.42,0000.31,0000.15,-000.02,0000.41,0000.37,15.9,22.7,,00.0,0633.9,30.9
2021-02-03T13:07:00Z,00000200,01000000,0000.00,0000.28,-000.27,0000.04,0000.19,0000.05,0000.12,-000.37,-000.38,16.0,22.8,,00.0,0634.0,30.9
2021-02-03T13:08:00Z,00000200,01000000,-000.31,0000.17,0000.14,-000.33,0000.08,-000.07,0000.02,0000.04,0000.39,16.1,22.8,,00.0,0634.0,30.9
2021-02-03T13:09:00Z,00000200,01000000,0000.03,0000.35,-000.29,0000.15,0000.22,-000.06,0000.25,-000.09,-000.11,16.1,22.8,,00.0,0634.0,30.9
2021-02-03T13:10:00Z,00000200,01000000,0000.49,0000.40,-000.21,-000.26,0000.07,-000.08,-000.30,0000.15,0000.38,16.2,22.8,,00.0,0633.8,30.9
2021-02-03T13:11:00Z,00000200,01000000,-000.13,0000.28,0000.19,0000.02,0000.28,-000.20,0000.20,0000.34,-000.34,16.1,22.8,,00.0,0633.8,30.9
2021-02-03T13:12:00Z,00000200,01000000,0000.17,0000.21,-000.11,-000.05,0000.01,-000.00,0000.04,-000.34,0000.19,16.1,22.8,,00.0,0633.8,30.9
2021-02-03T13:13:00Z,00000200,01000000,-000.31,0000.06,-000.25,-000.34,0000.47,-000.04,0000.18,0000.33,0000.07,16.0,22.8,,00.0,0633.8,30.9
2021-02-03T13:14:00Z,00000200,01000000,0000.04,0000.31,-000.12,-000.22,0000.06,0000.01,-000.21,0000.01,0000.02,15.9,22.7,,00.0,0633.8,30.9
2021-02-03T13:15:00Z,00000200,01000000,0000.74,0000.18,0000.21,-000.41,0000.15,0000.06,0000.33,-000.42,-000.30,15.8,22.7,,00.0,0633.7,30.8
2021-02-03T13:16:00Z,00000200,01000000,0001.05,0000.37,0000.05,-000.30,0000.39,0000.11,0000.26,0000.74,0000.27,15.8,22.6,,00.0,0633.7,30.8
2021-02-03T13:17:00Z,00000200,01000000,0000.06,0000.35,-000.21,-000.02,-000.20,-000.30,0000.35,0000.06,0000.11,15.8,22.6,,00.0,0633.7,30.8
2021-02-03T13:18:00Z,00000200,01000000,-000.09,0000.36,-000.21,0000.09,-000.13,-000.13,0000.19,-000.09,0000.33,15.9,22.7,,00.0,0633.7,30.8
2021-02-03T13:19:00Z,00000200,01000000,-000.22,0000.65,0000.01,0000.47,0000.31,0000.09,0000.34,0000.51,0000.27,15.9,22.7,,00.0,0633.7,30.8
2021-02-03T13:20:00Z,00000200,01000000,0000.67,0000.34,0000.18,0000.01,-000.00,0000.10,-000.04,0000.19,0000.06,16.0,22.7,,00.0,0633.6,30.9
2021-02-03T13:21:00Z,00000200,01000000,-000.28,0000.09,-000.15,-000.17,0000.10,0000.01,0000.13,0000.16,-000.19,16.0,22.7,,00.0,0633.7,30.9
2021-02-03T13:22:00Z,00000200,01000000,0000.54,0000.19,0000.25,-000.66,0000.31,-000.03,0000.42,0000.59,0000.35,16.1,22.8,,00.0,0633.7,30.9
2021-02-03T13:23:00Z,00000200,01000000,0000.05,0000.45,-000.26,-000.21,0000.12,-000.07,-000.12,-000.37,0000.26,16.2,22.8,,00.0,0633.8,30.9
2021-02-03T13:24:00Z,00000200,01000000,-000.09,0000.26,-000.30,-000.51,0000.08,-000.02,-000.20,-000.56,-000.44,16.2,22.8,,00.0,0633.9,30.9
2021-02-03T13:25:00Z,00000200,01000000,0000.12,0000.27,0000.06,-000.18,0000.31,0000.21,0000.02,0000.37,0000.06,16.2,22.8,,00.0,0633.9,30.9
2021-02-03T13:26:00Z,00000200,01000000,0000.10,0000.43,-000.26,0000.14,0000.33,-000.05,-000.18,-000.13,0000.10,16.2,22.8,,00.0,0633.8,30.9
2021-02-03T13:27:00Z,00000200,01000000,0000.16,0000.36,-000.16,0000.44,0000.04,0000.23,0000.35,0000.16,-000.07,16.1,22.8,,00.0,0633.8,30.9
2021-02-03T13:28:00Z,00000200,01000000,0000.09,0000.64,0000.04,-000.31,0000.04,-000.09,0000.51,0000.68,0000.07,16.0,22.7,,00.0,0633.8,30.8
2021-02-03T13:29:00Z,00000200,01000000,-000.40,0000.17,-000.17,0000.05,0000.01,0000.30,0000.33,0000.19,0000.56,15.9,22.6,,00.0,0633.7,30.8
2021-02-03T13:30:00Z,00000200,01000000,-000.16,0000.22,-000.16,-000.18,-000.18,0000.10,0000.02,-000.02,0000.01,15.8,22.5,,00.0,0633.7,30.8
2021-02-03T13:31:00Z,00000200,01000000,-000.15,0000.50,-000.01,-000.23,0000.16,0000.05,0000.72,0000.39,-000.01,15.7,22.5,,00.0,0633.8,30.7
2021-02-03T13:32:00Z,00000200,01000000,-000.01,0000.35,0000.05,-000.24,0000.19,-000.20,0000.06,0000.29,0000.15,15.7,22.4,,00.0,0633.8,30.8
2021-02-03T13:33:00Z,00000200,01000000,0000.40,-000.01,-000.29,0000.16,-000.03,0000.06,0000.31,0000.35,0000.42,15.7,22.4,,00.0,0633.9,30.8
2021-02-03T13:34:00Z,00000200,01000000,0000.24,0000.16,-000.41,-000.28,0000.07,-000.24,-000.08,-000.23,-000.05,15.7,22.4,,00.0,0633.8,30.8
2021-02-03T13:35:00Z,00000200,01000000,-000.22,0000.36,-000.43,0000.07,0000.06,-000.14,0000.33,0000.84,0000.13,15.7,22.4,,00.0,0633.7,30.8
2021-02-03T13:36:00Z,00000200,01000000,0000.05,0000.21,0000.29,-000.22,-000.03,0000.16,0000.47,0000.00,0000.21,15.8,22.5,,00.0,0633.7,30.8
2021-02-03T13:37:00Z,00000200,01000000,0000.42,0000.28,-000.08,0000.28,0000.23,-000.08,0000.34,0000.33,0000.46,15.9,22.5,,00.0,0633.7,30.8
2021-02-03T13:38:00Z,00000200,01000000,-000.05,0000.07,-000.09,-000.55,0000.27,-000.38,0000.08,0000.04,0000.12,15.9,22.5,,00.0,0633.7,30.9
2021-02-03T13:39:00Z,00000200,01000000,0000.47,0000.33,0000.16,-000.08,0000.07,0000.15,0000.29,0000.65,0000.09,15.9,22.6,,00.0,0633.8,30.9
2021-02-03T13:40:00Z,00000200,01000000,-000.05,0000.33,-000.21,0000.48,0000.31,0000.04,0000.03,-000.02,-000.03,16.0,22.6,,00.0,0633.7,30.9
2021-02-03T13:41:00Z,00000200,01000000,-000.00,0000.52,0000.04,-000.40,-000.14,0000.43,0000.10,0000.18,0000.07,16.0,22.6,,00.0,0633.7,30.9
2021-02-03T13:42:00Z,00000200,01000000,0000.36,0000.16,-000.10,0000.08,0000.17,-000.07,-000.28,-000.56,-000.10,16.1,22.7,,00.0,0633.8,30.9
2021-02-03T13:43:00Z,00000200,01000000,-000.00,0000.17,0000.14,-000.15,0000.03,-000.13,0000.09,0000.21,0000.26,16.1,22.7,,00.0,0633.9,30.9
2021-02-03T13:44:00Z,00000200,01000000,0000.36,0000.05,-000.32,0000.41,-000.13,-000.35,-000.13,0000.15,-000.35,16.1,22.7,,00.0,0633.9,30.9
2021-02-03T13:45:00Z,00000200,01000000,-000.13,-000.00,0000.11,0000.09,0000.24,-000.04,0000.47,-000.23,0000.08,16.0,22.6,,00.0,0633.8,30.9
2021-02-03T13:46:00Z,00000200,01000000,0000.28,0000.38,-000.09,-000.02,0000.25,0000.18,-000.19,0000.40,0000.30,16.0,22.6,,00.0,0633.8,30.9
2021-02-03T13:47:00Z,00000200,01000000,0000.07,0000.32,-000.09,0000.24,0000.24,-000.09,0000.32,0000.03,0000.23,16.0,22.6,,00.0,0633.8,30.9
2021-02-03T13:48:00Z,00000200,01000000,0000.13,0000.28,-000.11,-000.16,0000.19,0000.14,0000.35,0000.52,0000.03,16.0,22.6,,00.0,0633.7,30.9
2021-02-03T13:49:00Z,00000200,01000000,0000.93,0000.25,-000.15,-000.68,0000.36,0000.12,0000.51,0000.10,0000.15,16.1,22.7,,00.0,0633.7,30.9
2021-02-03T13:50:00Z,00000200,01000000,0000.42,0000.55,-000.12,0000.18,0000.16,0000.00,-000.00,0000.61,0000.30,16.1,22.7,,00.0,0633.6,30.9
2021-02-03T13:51:00Z,00000200,01000000,0000.57,0000.12,-000.20,0000.20,0000.09,0000.12,0000.34,0000.17,0000.24,16.2,22.7,,00.0,0633.6,30.9
2021-02-03T13:52:00Z,00000200,01000000,0000.83,0000.05,-000.09,0000.15,0000.00,0000.32,0000.19,0000.29,0000.27,16.3,22.8,,00.0,0633.6,30.9
2021-02-03T13:53:00Z,00000200,01000000,-000.06,0000.39,0000.03,-000.02,0000.07,0000.20,0000.18,0000.15,-000.22,16.4,22.8,,00.0,0633.6,30.9
2021-02-03T13:54:00Z,00000200,01000000,-000.16,0000.29,-000.15,-000.75,0000.19,0000.14,-000.43,-000.74,-000.25,16.4,22.8,,00.0,0633.7,30.9
2021-02-03T13:55:00Z,00000200,01000000,-000.28,0000.04,0000.11,0000.34,0000.30,-000.06,0000.02,0000.37,0000.27,16.4,22.8,,00.0,0633.7,30.9
2021-02-03T13:56:00Z,00000200,01000000,-000.09,0000.26,-000.13,-000.34,0000.33,-000.13,-000.17,-000.04,-000.36,16.4,22.9,,00.0,0633.7,30.9
2021-02-03T13:57:00Z,00000200,41000000,,,,,,,-000.79,-001.09,-000.52,16.5,22.9,,00.0,0633.6,30.9
2021-02-03T13:58:00Z,00000200,61000000,,,,,,,0000.21,0000.43,0000.33,16.1,23.0,,00.0,0632.9,30.9
2021-02-03T13:59:00Z,00000200,21000000,,,,,,,0000.09,-000.25,0000.10,16.1,23.1,,00.0,0632.9,30.9
